Weather History for Bedford, MA

Change the Weather History Date:

Friday, February 1, 2013

  Actual Average Record
Temperature  
Mean Temperature 26 °F -  
Max Temperature 32 °F 35 °F 66 °F (1989)
Min Temperature 21 °F 17 °F -7 °F (1963)
Degree Days  
Heating Degree Days 38    
Moisture  
Dew Point 6 °F    
Average Humidity 41    
Maximum Humidity 53    
Minimum Humidity 31    
Precipitation  
Precipitation 0.00 in - - ()
Sea Level Pressure  
Sea Level Pressure 29.85 in    
Wind  
Wind Speed 14 mph (West)    
Max Wind Speed 20 mph    
Max Gust Speed 30 mph    
Visibility 10 miles    
Events      
Averages and records for this station are not official NWS values.
T = Trace of Precipitation, MM = Missing Value Source: NWS Daily Summary

Daily Weather History Graph

Daily Weather History Graph

Search for Another Location

Airport:

Trip Planner

Search our weather history database for the weather conditions in past years. The results will help you decide how hot, cold, wet, or windy it might be!

Date:

Astronomy

Feb. 01, 2013 Rise Set
Actual Time 6:58 AM EST 4:59 PM EST
Civil Twilight 6:28 AM EST 5:29 PM EST
Nautical Twilight 5:55 AM EST 6:02 PM EST
Astronomical Twilight 5:22 AM EST 6:35 PM EST
Moon 11:12 PM EST (2/1) 9:21 AM EST (2/1)
Length of Visible Light 11h 00m
Length of Day
10h 00m
Waning Gibbous, 70% of the Moon is Illuminated
Feb 1
Waning Gibbous
Feb 3
Last Quarter
Feb 10
New
Feb 17
First Quarter
Feb 25
Full

Hourly Weather History & Observations

Time (EST) Temp. Windchill Dew Point Humidity Pressure Visibility Wind Dir Wind Speed Gust Speed Precip Events Conditions
12:56 AM 28.9 °F 17.7 °F 10.9 °F 47% 29.64 in 10.0 mi West 15.0 mph 26.5 mph N/A   Clear
1:56 AM 28.9 °F 16.1 °F 10.9 °F 47% 29.65 in 10.0 mi West 19.6 mph 27.6 mph N/A   Clear
2:56 AM 28.0 °F 16.1 °F 8.1 °F 43% 29.67 in 10.0 mi West 16.1 mph 21.9 mph N/A   Clear
3:56 AM 28.0 °F 17.5 °F 8.1 °F 43% 29.69 in 10.0 mi West 12.7 mph 25.3 mph N/A   Clear
4:56 AM 26.6 °F 13.8 °F 6.8 °F 43% 29.66 in 10.0 mi WSW 17.3 mph 21.9 mph N/A   Clear
5:56 AM 26.1 °F 18.4 °F 7.0 °F 44% 29.72 in 10.0 mi WSW 6.9 mph - N/A   Scattered Clouds
6:56 AM 26.1 °F 17.6 °F 10.9 °F 53% 29.75 in 10.0 mi WSW 8.1 mph - N/A   Scattered Clouds
7:56 AM 27.0 °F 17.3 °F 10.9 °F 51% 29.78 in 10.0 mi WSW 10.4 mph - N/A   Clear
8:56 AM 28.9 °F 16.5 °F 8.1 °F 41% 29.82 in 10.0 mi WSW 18.4 mph 24.2 mph N/A   Partly Cloudy
9:56 AM 30.0 °F 17.9 °F 5.0 °F 35% 29.83 in 10.0 mi West 18.4 mph 26.5 mph N/A   Partly Cloudy
10:56 AM 30.9 °F 19.4 °F 6.1 °F 35% 29.82 in 10.0 mi West 17.3 mph 24.2 mph N/A   Partly Cloudy
11:56 AM 32.0 °F 22.1 °F 5.0 °F 32% 29.82 in 10.0 mi WNW 13.8 mph 20.7 mph N/A   Partly Cloudy
12:56 PM 32.0 °F 21.2 °F 5.0 °F 32% 29.79 in 10.0 mi West 16.1 mph 25.3 mph N/A   Mostly Cloudy
1:56 PM 32.0 °F 20.8 °F 3.9 °F 31% 29.80 in 10.0 mi WNW 17.3 mph 29.9 mph N/A   Partly Cloudy
2:56 PM 30.0 °F 21.7 °F 3.9 °F 33% 29.83 in 10.0 mi WNW 9.2 mph - N/A   Overcast
3:56 PM 28.9 °F 17.7 °F 5.0 °F 36% 29.86 in 10.0 mi WNW 15.0 mph 20.7 mph N/A   Overcast
4:56 PM 28.0 °F 17.0 °F 5.0 °F 38% 29.90 in 10.0 mi WNW 13.8 mph 20.7 mph N/A   Overcast
5:56 PM 27.0 °F 16.7 °F 6.1 °F 41% 29.96 in 10.0 mi NW 11.5 mph - N/A   Overcast
6:56 PM 25.0 °F 16.3 °F 5.0 °F 43% 30.00 in 10.0 mi NW 8.1 mph - N/A   Scattered Clouds
7:56 PM 25.0 °F 13.6 °F 5.0 °F 43% 30.04 in 10.0 mi WNW 12.7 mph 19.6 mph N/A   Mostly Cloudy
8:56 PM 24.1 °F 11.0 °F 3.9 °F 42% 30.06 in 10.0 mi WNW 16.1 mph - N/A   Mostly Cloudy
9:56 PM 23.0 °F 11.7 °F 3.0 °F 42% 30.08 in 10.0 mi West 11.5 mph 19.6 mph N/A   Clear
10:56 PM 21.9 °F 11.0 °F 1.9 °F 42% 30.10 in 10.0 mi West 10.4 mph 19.6 mph N/A   Clear
11:56 PM 21.0 °F 9.9 °F 1.9 °F 44% 30.12 in 10.0 mi West 10.4 mph 18.4 mph N/A   Clear